TimeCST,TemperatureF,Dew PointF,Humidity,Sea Level PressureIn,VisibilityMPH,Wind Direction,Wind SpeedMPH,Gust SpeedMPH,PrecipitationIn,Events,Conditions,WindDirDegrees,DateUTC
12:26 AM,8.6,1.4,73,30.13,10.0,NNW,10.4,-,N/A,,Mostly Cloudy,330,2013-01-13 06:26:00
12:52 AM,8.1,1.9,76,30.21,10.0,NW,10.4,-,N/A,,Overcast,310,2013-01-13 06:52:00
1:52 AM,8.1,1.0,73,30.20,10.0,NNW,18.4,26.5,0.00,,Overcast,330,2013-01-13 07:52:00
2:23 AM,6.8,-0.4,72,30.14,10.0,NW,18.4,-,N/A,,Scattered Clouds,320,2013-01-13 08:23:00
2:52 AM,7.0,-0.0,73,30.21,10.0,NNW,17.3,-,N/A,,Scattered Clouds,330,2013-01-13 08:52:00
3:22 AM,6.8,1.4,79,30.15,10.0,NW,13.8,-,N/A,,Mostly Cloudy,320,2013-01-13 09:22:00
3:52 AM,6.8,1.4,79,30.13,7.0,NW,11.5,-,N/A,,Overcast,320,2013-01-13 09:52:00
4:52 AM,7.0,1.9,80,30.19,9.0,NW,15.0,-,N/A,,Overcast,320,2013-01-13 10:52:00
5:13 AM,6.8,1.4,79,30.12,10.0,NNW,17.3,24.2,N/A,,Scattered Clouds,330,2013-01-13 11:13:00
5:52 AM,6.1,-0.0,76,30.20,10.0,NW,15.0,23.0,N/A,,Partly Cloudy,320,2013-01-13 11:52:00
6:52 AM,8.1,1.9,76,30.25,10.0,NW,9.2,-,N/A,,Overcast,310,2013-01-13 12:52:00
7:52 AM,8.1,1.0,73,30.26,10.0,NW,12.7,-,N/A,,Overcast,320,2013-01-13 13:52:00
8:01 AM,8.6,1.4,73,30.19,10.0,NW,11.5,-,N/A,,Overcast,310,2013-01-13 14:01:00
8:52 AM,8.1,-0.9,67,30.30,10.0,NW,13.8,-,N/A,,Overcast,310,2013-01-13 14:52:00
9:52 AM,10.0,1.0,67,30.30,10.0,NW,12.7,-,N/A,,Overcast,320,2013-01-13 15:52:00
10:52 AM,10.9,-0.0,61,30.30,10.0,NW,15.0,-,N/A,,Scattered Clouds,310,2013-01-13 16:52:00
11:52 AM,14.0,1.0,56,30.27,10.0,NW,17.3,23.0,N/A,,Clear,320,2013-01-13 17:52:00
12:52 PM,15.1,3.0,59,30.26,10.0,NW,13.8,-,N/A,,Clear,310,2013-01-13 18:52:00
1:52 PM,17.1,3.0,54,30.26,10.0,NW,12.7,-,N/A,,Clear,310,2013-01-13 19:52:00
2:52 PM,18.0,3.9,54,30.26,10.0,WNW,12.7,-,N/A,,Clear,300,2013-01-13 20:52:00
3:52 PM,18.0,3.9,54,30.29,10.0,WNW,10.4,-,N/A,,Clear,300,2013-01-13 21:52:00
4:52 PM,17.6,3.2,53,30.25,10.0,WNW,10.4,-,N/A,,Clear,300,2013-01-13 22:52:00
5:52 PM,14.0,3.9,64,30.32,10.0,West,5.8,-,N/A,,Clear,280,2013-01-13 23:52:00
6:52 PM,10.9,3.9,73,30.34,10.0,West,5.8,-,N/A,,Clear,260,2013-01-14 00:52:00
7:52 PM,12.0,3.9,70,30.34,10.0,West,3.5,-,N/A,,Clear,260,2013-01-14 01:52:00
8:52 PM,10.0,3.0,73,30.36,10.0,Calm,Calm,-,N/A,,Clear,0,2013-01-14 02:52:00
9:52 PM,9.0,3.9,80,30.36,10.0,Calm,Calm,-,N/A,,Clear,0,2013-01-14 03:52:00
10:52 PM,5.0,1.9,87,30.38,10.0,SSW,4.6,-,N/A,,Clear,210,2013-01-14 04:52:00
11:52 PM,8.6,3.2,79,30.31,10.0,Calm,Calm,-,N/A,,Clear,0,2013-01-14 05:52:00